Location: Hollin Hills
(38.7573°N, 77.0661°W)
Time: 12:39:10
(UTC+00:00)

ISS - Pass Details

Date: 23 April 2026
Orbit: 414 x 424 km, 51.6° (Epoch: 11 May)

Event Time Altitude Azimuth Distance (km) Brightness Sun altitude
Exits shadow 07:22:51 14° 65° (ENE) 1,293 -0.6 -29.6°
Drops below altitude 10° 07:23:23 10° 62° (ENE) 1,498 -0.2 -29.6°
Sets 07:25:32 0° 56° (ENE) 2,367 1.1 -29.3°
